,,,PA_Meas_PMT16A,,PR_Meas_QMR101_102,,RH_Meas_QMH101,,SR_Meas_QMS101,,TA_Meas_QMH101,,GenWind,,GenWind,
date,time,status,PA,status,PR,status,RH,status,SR,status,TA,status,DirAvg,status,SpdAvg,
2012-04-18, 00:00:04,VALID,1002.92,VALID,0,VALID,93.6521,VALID,0,VALID,24.4025,VALID,350,VALID,0.595703,
2012-04-18, 00:01:04,VALID,1002.9,VALID,0,VALID,93.7132,VALID,0,VALID,24.422,VALID,350,VALID,0.533984,
2012-04-18, 00:02:04,VALID,1002.86,VALID,0,VALID,93.6826,VALID,0.0815089,VALID,24.4414,VALID,350,VALID,0.334375,
2012-04-18, 00:03:04,VALID,1002.87,VALID,0,VALID,93.6292,VALID,0,VALID,24.422,VALID,350,VALID,0.200391,
2012-04-18, 00:04:04,VALID,1002.89,VALID,0,VALID,93.5606,VALID,0,VALID,24.383,VALID,350,VALID,0.0105469,
2012-04-18, 00:05:04,VALID,1002.9,VALID,0,VALID,93.5224,VALID,0,VALID,24.3636,VALID,350,VALID,0,
2012-04-18, 00:06:04,VALID,1002.92,VALID,0,VALID,93.5224,VALID,0,VALID,24.3441,VALID,350,VALID,0,
2012-04-18, 00:07:04,VALID,1002.95,VALID,0,VALID,93.5224,VALID,0,VALID,24.3246,VALID,350,VALID,0,
2012-04-18, 00:08:04,VALID,1002.94,VALID,0,VALID,93.4919,VALID,0,VALID,24.2857,VALID,350,VALID,0,
2012-04-18, 00:09:04,VALID,1002.98,VALID,0,VALID,93.4996,VALID,0.0815089,VALID,24.2662,VALID,350,VALID,0,
2012-04-18, 00:10:04,VALID,1002.95,VALID,0,VALID,93.5224,VALID,0,VALID,24.2468,VALID,350,VALID,0,
2012-04-18, 00:11:04,VALID,1002.97,VALID,0,VALID,93.5606,VALID,0,VALID,24.2468,VALID,350,VALID,0,
2012-04-18, 00:12:04,VALID,1002.95,VALID,0,VALID,93.6292,VALID,0,VALID,24.2273,VALID,350,VALID,0,
2012-04-18, 00:13:04,VALID,1002.92,VALID,0,VALID,93.675,VALID,0.0815089,VALID,24.2273,VALID,350,VALID,0,
2012-04-18, 00:14:04,VALID,1002.89,VALID,0,VALID,93.7055,VALID,0,VALID,24.2273,VALID,350,VALID,0,
2012-04-18, 00:15:04,VALID,1002.86,VALID,0,VALID,93.7513,VALID,0,VALID,24.206,VALID,350,VALID,0,
2012-04-18, 00:16:04,VALID,1002.84,VALID,0,VALID,93.7208,VALID,0,VALID,24.2078,VALID,350,VALID,0,
2012-04-18, 00:17:04,VALID,1002.82,VALID,0,VALID,93.7208,VALID,0,VALID,24.2078,VALID,350,VALID,0.414063,
2012-04-18, 00:18:04,VALID,1002.78,VALID,0,VALID,93.7437,VALID,0,VALID,24.1884,VALID,350,VALID,0.371875,
2012-04-18, 00:19:04,VALID,1002.78,VALID,0,VALID,93.7742,VALID,0,VALID,24.1281,VALID,350,VALID,0.33125,
2012-04-18, 00:20:04,VALID,1002.77,VALID,0,VALID,93.7589,VALID,0,VALID,24.1902,VALID,350,VALID,0.379687,
2012-04-18, 00:21:04,VALID,1002.73,VALID,0,VALID,93.8276,VALID,0.0815089,VALID,24.1494,VALID,350,VALID,0.346875,
2012-04-18, 00:22:04,VALID,1002.73,VALID,0,VALID,93.8581,VALID,0,VALID,24.1494,VALID,350,VALID,0.294531,
2012-04-18, 00:23:04,VALID,1002.7,VALID,0,VALID,93.8886,VALID,0,VALID,24.1494,VALID,350,VALID,0.357422,
2012-04-18, 00:24:04,VALID,1002.7,VALID,0,VALID,93.9344,VALID,0,VALID,24.1494,VALID,350,VALID,0.201172,
2012-04-18, 00:25:04,VALID,1002.65,VALID,0,VALID,94.0183,VALID,0,VALID,24.1884,VALID,350,VALID,0.191406,
2012-04-18, 00:26:04,VALID,1002.6,VALID,0,VALID,94.087,VALID,0.0815089,VALID,24.2078,VALID,350,VALID,0,
2012-04-18, 00:27:04,VALID,1002.57,VALID,0,VALID,94.087,VALID,0.0815089,VALID,24.206,VALID,350,VALID,0.177344,
2012-04-18, 00:28:04,VALID,1002.54,VALID,0,VALID,94.1175,VALID,0,VALID,24.2273,VALID,350,VALID,0,
2012-04-18, 00:29:04,VALID,1002.54,VALID,0,VALID,94.0717,VALID,0,VALID,24.2273,VALID,350,VALID,0,
2012-04-18, 00:30:04,VALID,1002.53,VALID,0,VALID,94.0183,VALID,0,VALID,24.2078,VALID,350,VALID,0,
2012-04-18, 00:31:04,VALID,1002.5,VALID,0,VALID,94.0107,VALID,0,VALID,24.2078,VALID,350,VALID,0,
2012-04-18, 00:32:04,VALID,1002.49,VALID,0,VALID,94.0412,VALID,0,VALID,24.2078,VALID,350,VALID,0,
2012-04-18, 00:33:04,VALID,1002.5,VALID,0,VALID,94.0565,VALID,0,VALID,24.2078,VALID,350,VALID,0,
2012-04-18, 00:34:04,VALID,1002.47,VALID,0,VALID,94.1175,VALID,0,VALID,24.2273,VALID,350,VALID,0,
2012-04-18, 00:35:04,VALID,1002.5,VALID,0,VALID,94.2396,VALID,0,VALID,24.2662,VALID,350,VALID,0,
2012-04-18, 00:36:04,VALID,1002.53,VALID,0,VALID,94.2396,VALID,0,VALID,24.2857,VALID,350,VALID,0,
2012-04-18, 00:37:04,VALID,1002.57,VALID,0,VALID,94.1938,VALID,0.0815089,VALID,24.2857,VALID,350,VALID,0,
2012-04-18, 00:38:04,VALID,1002.57,VALID,0,VALID,94.087,VALID,0,VALID,24.2662,VALID,350,VALID,0,
2012-04-18, 00:39:04,VALID,1002.6,VALID,0,VALID,93.9649,VALID,0,VALID,24.2291,VALID,350,VALID,0,
2012-04-18, 00:40:04,VALID,1002.62,VALID,0,VALID,93.9344,VALID,0,VALID,24.1689,VALID,350,VALID,0,
2012-04-18, 00:41:04,VALID,1002.6,VALID,0,VALID,93.9191,VALID,0.0815089,VALID,24.1707,VALID,350,VALID,0,
2012-04-18, 00:42:04,VALID,1002.61,VALID,0,VALID,93.9497,VALID,0,VALID,24.1707,VALID,350,VALID,0,
2012-04-18, 00:43:04,VALID,1002.59,VALID,0,VALID,93.9954,VALID,0,VALID,24.13,VALID,350,VALID,0,
2012-04-18, 00:44:04,VALID,1002.58,VALID,0,VALID,94.0794,VALID,0,VALID,24.1494,VALID,350,VALID,0,
2012-04-18, 00:45:04,VALID,1002.54,VALID,0,VALID,94.1328,VALID,0,VALID,24.1494,VALID,350,VALID,0,
2012-04-18, 00:46:04,VALID,1002.58,VALID,0,VALID,94.1099,VALID,0,VALID,24.1494,VALID,350,VALID,0.255469,
2012-04-18, 00:47:04,VALID,1002.58,VALID,0,VALID,94.1022,VALID,0,VALID,24.1494,VALID,350,VALID,0.552344,
2012-04-18, 00:48:04,VALID,1002.58,VALID,0,VALID,94.0946,VALID,0,VALID,24.1494,VALID,350,VALID,0.708203,
2012-04-18, 00:49:04,VALID,1002.58,VALID,0,VALID,94.0565,VALID,0,VALID,24.1513,VALID,350,VALID,0.469922,
2012-04-18, 00:50:04,VALID,1002.61,VALID,0,VALID,93.9344,VALID,0,VALID,24.0716,VALID,350,VALID,0.664453,
2012-04-18, 00:51:04,VALID,1002.64,VALID,0,VALID,94.0488,VALID,0,VALID,24.091,VALID,8,VALID,0.548047,
2012-04-18, 00:52:04,VALID,1002.66,VALID,0,VALID,94.1862,VALID,0,VALID,24.1318,VALID,8,VALID,0.532812,
2012-04-18, 00:53:04,VALID,1002.66,VALID,0,VALID,94.2167,VALID,0.0815089,VALID,24.1105,VALID,8,VALID,0.476563,
2012-04-18, 00:54:04,VALID,1002.67,VALID,0,VALID,94.1938,VALID,0,VALID,24.1105,VALID,8,VALID,0.370703,
2012-04-18, 00:55:04,VALID,1002.66,VALID,0,VALID,94.1328,VALID,0,VALID,24.091,VALID,8,VALID,0.441797,
2012-04-18, 00:56:04,VALID,1002.67,VALID,0,VALID,94.1862,VALID,0,VALID,24.091,VALID,8,VALID,0.501172,
2012-04-18, 00:57:04,VALID,1002.69,VALID,0,VALID,94.3158,VALID,0,VALID,24.13,VALID,8,VALID,0.414844,
2012-04-18, 00:58:04,VALID,1002.7,VALID,0,VALID,94.3387,VALID,0.0815089,VALID,24.1494,VALID,8,VALID,0.171875,
2012-04-18, 00:59:04,VALID,1002.7,VALID,0,VALID,94.3235,VALID,0,VALID,24.1707,VALID,8,VALID,0,
2012-04-18, 01:00:04,VALID,1002.69,VALID,0,VALID,94.3158,VALID,0,VALID,24.1494,VALID,8,VALID,0,
2012-04-18, 01:01:04,VALID,1002.69,VALID,0,VALID,94.2777,VALID,0,VALID,24.1707,VALID,8,VALID,0,
2012-04-18, 01:02:04,VALID,1002.69,VALID,0,VALID,94.3006,VALID,0,VALID,24.1689,VALID,8,VALID,0,
2012-04-18, 01:03:04,VALID,1002.7,VALID,0,VALID,94.3311,VALID,0,VALID,24.1494,VALID,8,VALID,0,
2012-04-18, 01:04:04,VALID,1002.68,VALID,0,VALID,94.3311,VALID,0,VALID,24.1884,VALID,8,VALID,0.485547,
2012-04-18, 01:05:04,VALID,1002.67,VALID,0,VALID,94.3082,VALID,0.0815089,VALID,24.1884,VALID,8,VALID,0.465625,
2012-04-18, 01:06:04,VALID,1002.67,VALID,0,VALID,94.1709,VALID,0,VALID,24.1494,VALID,8,VALID,0.445703,
2012-04-18, 01:07:04,VALID,1002.66,VALID,0,VALID,94.087,VALID,0,VALID,24.1105,VALID,8,VALID,0.467578,
2012-04-18, 01:08:04,VALID,1002.65,VALID,0,VALID,94.1328,VALID,0,VALID,24.0716,VALID,8,VALID,0.716016,
2012-04-18, 01:09:04,VALID,1002.62,VALID,0,VALID,94.1862,VALID,0,VALID,24.091,VALID,8,VALID,0.719141,
2012-04-18, 01:10:04,VALID,1002.62,VALID,0,VALID,94.2243,VALID,0,VALID,24.1123,VALID,8,VALID,0.491016,
2012-04-18, 01:11:04,VALID,1002.63,VALID,0,VALID,94.1938,VALID,0,VALID,24.0716,VALID,8,VALID,0.527344,
2012-04-18, 01:12:04,VALID,1002.61,VALID,0,VALID,94.209,VALID,0,VALID,24.0929,VALID,8,VALID,0.542969,
2012-04-18, 01:13:04,VALID,1002.58,VALID,0,VALID,94.209,VALID,0,VALID,24.0716,VALID,8,VALID,0.431641,
2012-04-18, 01:14:04,VALID,1002.55,VALID,0,VALID,94.2167,VALID,0,VALID,24.0716,VALID,8,VALID,0.319141,
2012-04-18, 01:15:04,VALID,1002.52,VALID,0,VALID,94.2853,VALID,0,VALID,24.0716,VALID,8,VALID,0.333594,
2012-04-18, 01:16:04,VALID,1002.52,VALID,0,VALID,94.3082,VALID,0,VALID,24.0716,VALID,8,VALID,0.48125,
2012-04-18, 01:17:04,VALID,1002.51,VALID,0,VALID,94.3082,VALID,0,VALID,24.0929,VALID,8,VALID,0.458203,
2012-04-18, 01:18:04,VALID,1002.5,VALID,0,VALID,94.354,VALID,0,VALID,24.091,VALID,8,VALID,0.404687,
2012-04-18, 01:19:04,VALID,1002.5,VALID,0,VALID,94.3845,VALID,0,VALID,24.1318,VALID,8,VALID,0.423828,
2012-04-18, 01:20:04,VALID,1002.51,VALID,0,VALID,94.3692,VALID,0,VALID,24.1105,VALID,8,VALID,0.462109,
2012-04-18, 01:21:04,VALID,1002.53,VALID,0,VALID,94.3616,VALID,0,VALID,24.1105,VALID,8,VALID,0.507422,
2012-04-18, 01:22:04,VALID,1002.52,VALID,0,VALID,94.3387,VALID,0,VALID,24.1105,VALID,8,VALID,0.433984,
2012-04-18, 01:23:04,VALID,1002.52,VALID,0,VALID,94.3921,VALID,0,VALID,24.1318,VALID,8,VALID,0.480469,
2012-04-18, 01:24:04,VALID,1002.51,VALID,0,VALID,94.4227,VALID,0,VALID,24.13,VALID,8,VALID,0.260938,
2012-04-18, 01:25:04,VALID,1002.52,VALID,0,VALID,94.4532,VALID,0,VALID,24.1707,VALID,8,VALID,0,
2012-04-18, 01:26:04,VALID,1002.52,VALID,0,VALID,94.4684,VALID,0,VALID,24.1689,VALID,8,VALID,0,
2012-04-18, 01:27:04,VALID,1002.5,VALID,0,VALID,94.4684,VALID,0,VALID,24.1689,VALID,8,VALID,0,
2012-04-18, 01:28:04,VALID,1002.48,VALID,0,VALID,94.4837,VALID,0,VALID,24.1884,VALID,8,VALID,0,
2012-04-18, 01:29:04,VALID,1002.43,VALID,0,VALID,94.4913,VALID,0,VALID,24.2078,VALID,6,VALID,0.441406,
2012-04-18, 01:30:04,VALID,1002.39,VALID,0,VALID,94.5371,VALID,0,VALID,24.2273,VALID,4,VALID,0.591797,
2012-04-18, 01:31:04,VALID,1002.35,VALID,0,VALID,94.5371,VALID,0.0815089,VALID,24.2468,VALID,4,VALID,0.51875,
2012-04-18, 01:32:04,VALID,1002.35,VALID,0,VALID,94.4455,VALID,0,VALID,24.2273,VALID,4,VALID,0.513281,
2012-04-18, 01:33:04,VALID,1002.33,VALID,0,VALID,94.4303,VALID,0,VALID,24.2273,VALID,3,VALID,0.545313,
2012-04-18, 01:34:04,VALID,1002.34,VALID,0,VALID,94.354,VALID,0,VALID,24.2291,VALID,360,VALID,0.335938,
2012-04-18, 01:35:04,VALID,1002.35,VALID,0,VALID,94.2472,VALID,0,VALID,24.1902,VALID,360,VALID,0.389453,
2012-04-18, 01:36:04,VALID,1002.37,VALID,0,VALID,94.2472,VALID,0,VALID,24.1476,VALID,360,VALID,0.232031,
2012-04-18, 01:37:04,VALID,1002.37,VALID,0,VALID,94.2624,VALID,0,VALID,24.1494,VALID,360,VALID,0.213672,
2012-04-18, 01:38:04,VALID,1002.39,VALID,0,VALID,94.2777,VALID,0,VALID,24.1902,VALID,360,VALID,0.065625,
2012-04-18, 01:39:04,VALID,1002.39,VALID,0,VALID,94.3158,VALID,0,VALID,24.1689,VALID,360,VALID,0,
2012-04-18, 01:40:04,VALID,1002.36,VALID,0,VALID,94.3311,VALID,0,VALID,24.1494,VALID,360,VALID,0,
2012-04-18, 01:41:04,VALID,1002.38,VALID,0,VALID,94.3158,VALID,0,VALID,24.1689,VALID,360,VALID,0,
2012-04-18, 01:42:04,VALID,1002.36,VALID,0,VALID,94.2548,VALID,0,VALID,24.1707,VALID,360,VALID,0,
2012-04-18, 01:43:04,VALID,1002.37,VALID,0,VALID,94.2853,VALID,0,VALID,24.1494,VALID,360,VALID,0,
2012-04-18, 01:44:04,VALID,1002.35,VALID,0,VALID,94.2853,VALID,0,VALID,24.1707,VALID,360,VALID,0,
2012-04-18, 01:45:04,VALID,1002.33,VALID,0,VALID,94.3158,VALID,0,VALID,24.1689,VALID,360,VALID,0,
2012-04-18, 01:46:04,VALID,1002.33,VALID,0,VALID,94.293,VALID,0,VALID,24.1689,VALID,360,VALID,0,
2012-04-18, 01:47:04,VALID,1002.32,VALID,0,VALID,94.3082,VALID,0,VALID,24.1689,VALID,360,VALID,0,
2012-04-18, 01:48:04,VALID,1002.25,VALID,0,VALID,94.293,VALID,0,VALID,24.1902,VALID,360,VALID,0,
2012-04-18, 01:49:04,VALID,1002.27,VALID,0,VALID,94.2853,VALID,0,VALID,24.1689,VALID,360,VALID,0,
2012-04-18, 01:50:04,VALID,1002.26,VALID,0,VALID,94.293,VALID,0,VALID,24.1689,VALID,360,VALID,0,
2012-04-18, 01:51:04,VALID,1002.29,VALID,0,VALID,94.2701,VALID,0,VALID,24.1689,VALID,360,VALID,0,
2012-04-18, 01:52:04,VALID,1002.29,VALID,0,VALID,94.2701,VALID,0,VALID,24.1689,VALID,360,VALID,0,
2012-04-18, 01:53:04,VALID,1002.32,VALID,0,VALID,94.2777,VALID,0,VALID,24.1884,VALID,360,VALID,0,
2012-04-18, 01:54:04,VALID,1002.33,VALID,0,VALID,94.3082,VALID,0,VALID,24.2078,VALID,360,VALID,0,
2012-04-18, 01:55:04,VALID,1002.33,VALID,0,VALID,94.2624,VALID,0,VALID,24.2078,VALID,360,VALID,0,
2012-04-18, 01:56:04,VALID,1002.33,VALID,0,VALID,94.2396,VALID,0,VALID,24.2097,VALID,360,VALID,0,
2012-04-18, 01:57:04,VALID,1002.32,VALID,0,VALID,94.2548,VALID,0,VALID,24.2078,VALID,360,VALID,0,
2012-04-18, 01:58:04,VALID,1002.28,VALID,0,VALID,94.2472,VALID,0,VALID,24.2273,VALID,360,VALID,0,
2012-04-18, 01:59:04,VALID,1002.29,VALID,0,VALID,94.2319,VALID,0,VALID,24.2078,VALID,360,VALID,0,
2012-04-18, 02:00:04,VALID,1002.24,VALID,0,VALID,94.1556,VALID,0,VALID,24.1689,VALID,360,VALID,0,
2012-04-18, 02:01:04,VALID,1002.23,VALID,0,VALID,94.0946,VALID,0,VALID,24.13,VALID,360,VALID,0,
2012-04-18, 02:02:04,VALID,1002.26,VALID,0,VALID,94.0565,VALID,0,VALID,24.1318,VALID,360,VALID,0,
2012-04-18, 02:03:04,VALID,1002.23,VALID,0,VALID,94.0794,VALID,0,VALID,24.091,VALID,360,VALID,0,
2012-04-18, 02:04:04,VALID,1002.22,VALID,0,VALID,94.0717,VALID,0,VALID,24.0716,VALID,360,VALID,0,
2012-04-18, 02:05:04,VALID,1002.23,VALID,0,VALID,94.087,VALID,0,VALID,24.0521,VALID,360,VALID,0,
2012-04-18, 02:06:04,VALID,1002.24,VALID,0,VALID,94.1099,VALID,0,VALID,24.0308,VALID,360,VALID,0,
2012-04-18, 02:07:04,VALID,1002.18,VALID,0,VALID,94.1175,VALID,0.0815089,VALID,24.0345,VALID,360,VALID,0,
2012-04-18, 02:08:04,VALID,1002.18,VALID,0,VALID,94.1556,VALID,0,VALID,24.0326,VALID,360,VALID,0,
2012-04-18, 02:09:04,VALID,1002.16,VALID,0,VALID,94.1938,VALID,0,VALID,24.0326,VALID,360,VALID,0,
2012-04-18, 02:10:04,VALID,1002.12,VALID,0,VALID,94.2624,VALID,0,VALID,24.0326,VALID,360,VALID,0,
2012-04-18, 02:11:04,VALID,1002.11,VALID,0,VALID,94.2853,VALID,0,VALID,24.0326,VALID,360,VALID,0,
2012-04-18, 02:12:04,VALID,1002.1,VALID,0,VALID,94.293,VALID,0,VALID,24.0521,VALID,360,VALID,0,
2012-04-18, 02:13:04,VALID,1002.1,VALID,0,VALID,94.2853,VALID,0.0815089,VALID,24.0539,VALID,360,VALID,0,
2012-04-18, 02:14:04,VALID,1002.09,VALID,0,VALID,94.2701,VALID,0,VALID,24.0521,VALID,360,VALID,0,
2012-04-18, 02:15:04,VALID,1002.12,VALID,0,VALID,94.2853,VALID,0,VALID,24.0734,VALID,360,VALID,0,
2012-04-18, 02:16:04,VALID,1002.12,VALID,0,VALID,94.293,VALID,0,VALID,24.0114,VALID,360,VALID,0,
2012-04-18, 02:17:04,VALID,1002.13,VALID,0,VALID,94.2853,VALID,0,VALID,24.0521,VALID,360,VALID,0,
2012-04-18, 02:18:04,VALID,1002.13,VALID,0,VALID,94.3158,VALID,0,VALID,24.0326,VALID,360,VALID,0,
2012-04-18, 02:19:04,VALID,1002.16,VALID,0,VALID,94.2701,VALID,0,VALID,24.0345,VALID,360,VALID,0,
2012-04-18, 02:20:04,VALID,1002.15,VALID,0,VALID,94.2472,VALID,0,VALID,23.9937,VALID,360,VALID,0,
2012-04-18, 02:21:04,VALID,1002.17,VALID,0,VALID,94.3235,VALID,0,VALID,24.0132,VALID,360,VALID,0,
2012-04-18, 02:22:04,VALID,1002.15,VALID,0,VALID,94.2396,VALID,0,VALID,24.015,VALID,360,VALID,0,
2012-04-18, 02:23:04,VALID,1002.15,VALID,0,VALID,94.1862,VALID,0.0815089,VALID,23.9353,VALID,360,VALID,0,
2012-04-18, 02:24:04,VALID,1002.11,VALID,0,VALID,94.2853,VALID,0,VALID,23.9566,VALID,360,VALID,0,
2012-04-18, 02:25:04,VALID,1002.12,VALID,0,VALID,94.3616,VALID,0,VALID,23.9973,VALID,360,VALID,0,
2012-04-18, 02:26:04,VALID,1002.11,VALID,0,VALID,94.3845,VALID,0,VALID,23.9742,VALID,360,VALID,0,
2012-04-18, 02:27:04,VALID,1002.13,VALID,0,VALID,94.3998,VALID,0,VALID,24.015,VALID,360,VALID,0,
2012-04-18, 02:28:04,VALID,1002.12,VALID,0,VALID,94.3998,VALID,0,VALID,23.9955,VALID,360,VALID,0.441016,
2012-04-18, 02:29:04,VALID,1002.1,VALID,0,VALID,94.3998,VALID,0,VALID,23.9955,VALID,360,VALID,0.544922,
2012-04-18, 02:30:04,VALID,1002.14,VALID,0,VALID,94.3692,VALID,0,VALID,23.9955,VALID,360,VALID,0.692969,
2012-04-18, 02:31:04,VALID,1002.14,VALID,0,VALID,94.2777,VALID,0,VALID,23.9566,VALID,360,VALID,0.684766,
2012-04-18, 02:32:04,VALID,1002.15,VALID,0,VALID,94.2319,VALID,0,VALID,23.9195,VALID,360,VALID,0.609766,
2012-04-18, 02:33:04,VALID,1002.14,VALID,0,VALID,94.2548,VALID,0,VALID,23.8982,VALID,360,VALID,0.605078,
2012-04-18, 02:34:04,VALID,1002.11,VALID,0,VALID,94.2853,VALID,0,VALID,23.8575,VALID,360,VALID,0.457031,
2012-04-18, 02:35:04,VALID,1002.12,VALID,0,VALID,94.354,VALID,0,VALID,23.8787,VALID,360,VALID,0.282031,
2012-04-18, 02:36:04,VALID,1002.09,VALID,0,VALID,94.3845,VALID,0,VALID,23.9195,VALID,360,VALID,0.240625,
2012-04-18, 02:37:04,VALID,1002.08,VALID,0,VALID,94.4989,VALID,0,VALID,23.9371,VALID,360,VALID,0.0328125,
2012-04-18, 02:38:04,VALID,1002.06,VALID,0,VALID,94.5981,VALID,0,VALID,23.9955,VALID,360,VALID,0,
2012-04-18, 02:39:04,VALID,1002.07,VALID,0,VALID,94.56,VALID,0,VALID,24.015,VALID,360,VALID,0,
2012-04-18, 02:40:04,VALID,1002.04,VALID,0,VALID,94.5142,VALID,0.0815089,VALID,24.015,VALID,360,VALID,0,
2012-04-18, 02:41:04,VALID,1002.04,VALID,0,VALID,94.4761,VALID,0,VALID,23.9937,VALID,360,VALID,0,
2012-04-18, 02:42:04,VALID,1002.03,VALID,0,VALID,94.4074,VALID,0,VALID,23.9548,VALID,360,VALID,0.170312,
2012-04-18, 02:43:04,VALID,1002.05,VALID,0,VALID,94.3464,VALID,0,VALID,23.9353,VALID,360,VALID,0.3375,
2012-04-18, 02:44:04,VALID,1002.06,VALID,0,VALID,94.3158,VALID,0,VALID,23.9371,VALID,360,VALID,0.369141,
2012-04-18, 02:45:04,VALID,1002.06,VALID,0,VALID,94.2853,VALID,0,VALID,23.8964,VALID,360,VALID,0.239063,
2012-04-18, 02:46:04,VALID,1002.07,VALID,0,VALID,94.3235,VALID,0,VALID,23.8964,VALID,360,VALID,0.00820312,
2012-04-18, 02:47:04,VALID,1002.04,VALID,0,VALID,94.3464,VALID,0,VALID,23.8982,VALID,360,VALID,0,
2012-04-18, 02:48:04,VALID,1002.04,VALID,0,VALID,94.3616,VALID,0,VALID,23.8575,VALID,360,VALID,0,
2012-04-18, 02:49:04,VALID,1002.04,VALID,0,VALID,94.4227,VALID,0,VALID,23.8769,VALID,360,VALID,0,
2012-04-18, 02:50:04,VALID,1002.01,VALID,0,VALID,94.4761,VALID,0,VALID,23.9177,VALID,360,VALID,0,
2012-04-18, 02:51:04,VALID,1001.98,VALID,0,VALID,94.5523,VALID,0,VALID,23.9159,VALID,360,VALID,0,
2012-04-18, 02:52:04,VALID,1001.95,VALID,0,VALID,94.5523,VALID,0.0815089,VALID,23.9548,VALID,360,VALID,0.169531,
2012-04-18, 02:53:04,VALID,1001.96,VALID,0,VALID,94.5142,VALID,0,VALID,23.914,VALID,360,VALID,0.183594,
2012-04-18, 02:54:04,VALID,1001.92,VALID,0,VALID,94.4989,VALID,0.0815089,VALID,23.9566,VALID,360,VALID,0.131641,
2012-04-18, 02:55:04,VALID,1001.92,VALID,0,VALID,94.4455,VALID,0,VALID,23.9159,VALID,360,VALID,0.169922,
2012-04-18, 02:56:04,VALID,1001.94,VALID,0,VALID,94.415,VALID,0,VALID,23.8769,VALID,360,VALID,0.369531,
2012-04-18, 02:57:04,VALID,1001.91,VALID,0,VALID,94.3616,VALID,0,VALID,23.838,VALID,360,VALID,0.246875,
2012-04-18, 02:58:04,VALID,1001.93,VALID,0,VALID,94.3998,VALID,0,VALID,23.838,VALID,360,VALID,0.212109,
2012-04-18, 02:59:04,VALID,1001.93,VALID,0,VALID,94.4608,VALID,0.0815089,VALID,23.8575,VALID,360,VALID,0.250391,
2012-04-18, 03:00:04,VALID,1001.96,VALID,0,VALID,94.4989,VALID,0,VALID,23.8556,VALID,360,VALID,0.0683594,
2012-04-18, 03:01:04,VALID,1001.94,VALID,0,VALID,94.5523,VALID,0,VALID,23.9159,VALID,360,VALID,0.257813,
2012-04-18, 03:02:04,VALID,1001.95,VALID,0,VALID,94.5371,VALID,0,VALID,23.8964,VALID,360,VALID,0.292188,
2012-04-18, 03:03:04,VALID,1001.95,VALID,0,VALID,94.4989,VALID,0,VALID,23.8769,VALID,360,VALID,0.273828,
2012-04-18, 03:04:04,VALID,1001.94,VALID,0,VALID,94.5218,VALID,0,VALID,23.8769,VALID,360,VALID,0.246875,
2012-04-18, 03:05:04,VALID,1001.94,VALID,0,VALID,94.4837,VALID,0.0815089,VALID,23.8575,VALID,360,VALID,0.566797,
2012-04-18, 03:06:04,VALID,1001.96,VALID,0,VALID,94.4761,VALID,0.0815089,VALID,23.8593,VALID,360,VALID,0.464844,
2012-04-18, 03:07:04,VALID,1001.97,VALID,0,VALID,94.5295,VALID,0,VALID,23.8787,VALID,360,VALID,0.469141,
2012-04-18, 03:08:04,VALID,1001.98,VALID,0,VALID,94.5295,VALID,0,VALID,23.8575,VALID,360,VALID,0.425,
2012-04-18, 03:09:04,VALID,1001.96,VALID,0,VALID,94.4989,VALID,0,VALID,23.8787,VALID,360,VALID,0.474609,
2012-04-18, 03:10:04,VALID,1001.97,VALID,0,VALID,94.5142,VALID,0.0815089,VALID,23.8575,VALID,360,VALID,0.503125,
2012-04-18, 03:11:04,VALID,1001.99,VALID,0,VALID,94.5981,VALID,0,VALID,23.8769,VALID,360,VALID,0.503906,
2012-04-18, 03:12:04,VALID,1002,VALID,0,VALID,94.6973,VALID,0,VALID,23.9159,VALID,360,VALID,0.51875,
2012-04-18, 03:13:04,VALID,1002,VALID,0,VALID,94.7202,VALID,0,VALID,23.9548,VALID,360,VALID,0.505859,
2012-04-18, 03:14:04,VALID,1002.01,VALID,0,VALID,94.7431,VALID,0,VALID,24.0132,VALID,360,VALID,0.350391,
2012-04-18, 03:15:04,VALID,1001.99,VALID,0,VALID,94.6897,VALID,0,VALID,23.9937,VALID,360,VALID,0.195313,
2012-04-18, 03:16:04,VALID,1002.01,VALID,0,VALID,94.682,VALID,0,VALID,24.015,VALID,360,VALID,0.323047,
2012-04-18, 03:17:04,VALID,1002.03,VALID,0,VALID,94.6973,VALID,0,VALID,24.0132,VALID,360,VALID,0.331641,
2012-04-18, 03:18:04,VALID,1002.07,VALID,0,VALID,94.6668,VALID,0.0815089,VALID,24.015,VALID,360,VALID,0.580469,
2012-04-18, 03:19:04,VALID,1002.09,VALID,0,VALID,94.6439,VALID,0,VALID,23.9937,VALID,360,VALID,0.445313,
2012-04-18, 03:20:04,VALID,1002.08,VALID,0,VALID,94.6439,VALID,0,VALID,23.9937,VALID,360,VALID,0.505469,
2012-04-18, 03:21:04,VALID,1002.1,VALID,0,VALID,94.6668,VALID,0.0815089,VALID,24.0132,VALID,360,VALID,0.489062,
2012-04-18, 03:22:04,VALID,1002.09,VALID,0,VALID,94.6134,VALID,0,VALID,24.0132,VALID,360,VALID,0.501953,
2012-04-18, 03:23:04,VALID,1002.11,VALID,0,VALID,94.5981,VALID,0,VALID,23.9937,VALID,360,VALID,0.433203,
2012-04-18, 03:24:04,VALID,1002.09,VALID,0,VALID,94.5295,VALID,0.0815089,VALID,23.9742,VALID,360,VALID,0.420703,
2012-04-18, 03:25:04,VALID,1002.05,VALID,0,VALID,94.4913,VALID,0,VALID,23.9548,VALID,360,VALID,0.384375,
2012-04-18, 03:26:04,VALID,1002.04,VALID,0,VALID,94.5142,VALID,0,VALID,23.9353,VALID,360,VALID,0.498437,
2012-04-18, 03:27:04,VALID,1002.04,VALID,0,VALID,94.5066,VALID,0,VALID,23.9761,VALID,360,VALID,0.364062,
2012-04-18, 03:28:04,VALID,1002.03,VALID,0,VALID,94.5371,VALID,0,VALID,23.9548,VALID,360,VALID,0.635156,
2012-04-18, 03:29:04,VALID,1002.03,VALID,0,VALID,94.5905,VALID,0,VALID,23.9548,VALID,360,VALID,0.659766,
2012-04-18, 03:30:04,VALID,1002.04,VALID,0,VALID,94.5523,VALID,0,VALID,23.9955,VALID,360,VALID,0.309375,
2012-04-18, 03:31:04,VALID,1002.07,VALID,0,VALID,94.5218,VALID,0,VALID,23.9353,VALID,360,VALID,0.323828,
2012-04-18, 03:32:04,VALID,1002.07,VALID,0,VALID,94.4989,VALID,0,VALID,23.9371,VALID,360,VALID,0.339844,
2012-04-18, 03:33:04,VALID,1002.02,VALID,0,VALID,94.5371,VALID,0,VALID,23.9159,VALID,360,VALID,0.289063,
2012-04-18, 03:34:04,VALID,1002.03,VALID,0,VALID,94.5752,VALID,0,VALID,23.9548,VALID,360,VALID,0,
2012-04-18, 03:35:04,VALID,1002.03,VALID,0,VALID,94.6515,VALID,0,VALID,23.9955,VALID,360,VALID,0,
2012-04-18, 03:36:04,VALID,1002.01,VALID,0,VALID,94.6897,VALID,0,VALID,24.0132,VALID,360,VALID,0,
2012-04-18, 03:37:04,VALID,1001.95,VALID,0,VALID,94.6515,VALID,0,VALID,24.0326,VALID,360,VALID,0,
2012-04-18, 03:38:04,VALID,1001.97,VALID,0,VALID,94.5752,VALID,0,VALID,24.0326,VALID,360,VALID,0,
2012-04-18, 03:39:04,VALID,1001.97,VALID,0,VALID,94.4837,VALID,0,VALID,23.9937,VALID,360,VALID,0,
2012-04-18, 03:40:04,VALID,1001.94,VALID,0,VALID,94.5066,VALID,0,VALID,24.0132,VALID,360,VALID,0,
2012-04-18, 03:41:04,VALID,1001.95,VALID,0,VALID,94.5142,VALID,0.0815089,VALID,24.0539,VALID,360,VALID,0,
2012-04-18, 03:42:04,VALID,1001.94,VALID,0,VALID,94.4913,VALID,0,VALID,24.0734,VALID,360,VALID,0,
2012-04-18, 03:43:04,VALID,1001.94,VALID,0,VALID,94.3387,VALID,0.0815089,VALID,24.0132,VALID,360,VALID,0,
2012-04-18, 03:44:04,VALID,1001.96,VALID,0,VALID,94.293,VALID,0.0815089,VALID,23.9937,VALID,359,VALID,0.460156,
2012-04-18, 03:45:04,VALID,1001.94,VALID,0,VALID,94.2243,VALID,0.0815089,VALID,23.9742,VALID,358,VALID,0.471875,
2012-04-18, 03:46:04,VALID,1001.95,VALID,0,VALID,94.1709,VALID,0,VALID,23.9548,VALID,357,VALID,0.510938,
2012-04-18, 03:47:04,VALID,1001.98,VALID,0,VALID,94.2167,VALID,0.0815089,VALID,23.9548,VALID,357,VALID,0.4375,
2012-04-18, 03:48:04,VALID,1001.98,VALID,0,VALID,94.2167,VALID,0,VALID,23.9761,VALID,357,VALID,0.428516,
2012-04-18, 03:49:04,VALID,1001.99,VALID,0,VALID,94.2472,VALID,0.0815089,VALID,23.9548,VALID,357,VALID,0.360938,